Snowfall_Accumulation
2.5 3.0 3.6 2.8 3.0 2.9 2.0 1.4 4.2 4.5 0.4 0.0 0.0 0.0 0.0 0.0 0.0 0.0 0.0 0.0 0.0 0.0 0.0 0.0 0.0 0.0 0.0 0.0 0.0 0.0 0.0 0.0 0.0 0.0 0.0 0.0 0.0 0.0
2.8 3.6 3.2 3.3 3.3 2.4 1.6 0.5 0.5 1.7 1.4 0.0 0.0 0.0 0.0 0.0 0.0 0.0 0.0 0.0 0.0 0.0 0.0 0.0 0.0 0.0 0.0 0.0 0.0 0.0 0.0 0.0 0.0 0.0 0.0 0.0 0.0 0.0
3.1 4.6 4.5 3.5 3.3 2.3 0.9 0.5 0.8 0.3 0.5 0.0 0.0 0.0 0.0 0.0 0.0 0.0 0.0 0.0 0.0 0.0 0.0 0.0 0.0 0.0 0.0 0.0 0.0 0.0 0.0 0.0 0.0 0.0 0.0 0.0 0.0 0.0
4.8 4.9 6.2 4.1 3.7 1.8 0.9 0.6 1.1 0.2 0.4 0.1 0.4 0.2 0.0 0.0 0.0 0.0 0.0 0.0 0.0 0.0 0.0 0.0 0.1 0.0 0.0 0.0 0.0 0.0 0.1 0.0 0.0 0.0 0.0 0.0 0.0 0.0
8.8 7.9 7.7 5.3 5.9 5.3 2.5 1.3 1.0 0.6 0.9 0.2 0.2 0.0 0.5 0.2 0.1 0.4 0.2 0.1 0.0 0.0 0.0 0.0 0.0 0.0 0.0 0.0 0.0 0.0 0.0 0.1 0.0 0.1 0.1 0.0 0.0 0.0
6.9 6.7 6.9 5.6 6.8 6.5 5.8 5.4 4.3 2.5 1.6 1.6 0.5 0.7 0.8 0.9 1.1 1.1 0.7 0.6 0.4 0.2 0.1 0.0 0.1 0.0 0.0 0.0 0.1 0.0 0.0 0.0 0.1 0.1 0.1 0.1 0.0 0.0
3.4 2.4 3.6 2.1 1.9 3.4 4.9 5.4 3.3 5.8 5.2 3.9 2.4 1.0 2.1 1.1 2.9 3.8 2.6 2.2 1.0 1.5 0.4 0.4 0.0 0.0 0.4 0.2 0.0 0.1 0.0 0.1 0.1 0.1 0.1 0.1 0.0 0.0
9.8 5.4 3.8 2.1 3.6 1.4 0.9 2.3 4.1 6.3 6.1 5.8 6.4 6.4 4.9 4.0 2.6 5.7 6.2 4.4 8.1 4.1 3.9 2.3 0.4 0.6 0.5 1.1 0.6 0.3 0.1 0.2 0.2 0.1 0.1 0.0 0.0 0.2
10.2 9.4 7.7 8.2 6.1 3.4 3.8 1.9 2.1 1.5 4.8 5.4 5.6 6.0 7.6 7.5 6.6 4.6 5.8 9.5 9.0 4.6 4.4 8.5 3.4 2.4 1.6 1.3 1.5 0.3 0.6 0.1 0.2 0.2 0.3 0.1 0.0 0.0
5.4 4.7 3.6 3.8 6.3 3.2 4.7 4.6 3.1 3.4 3.6 5.6 8.5 8.6 9.0 9.5 7.8 8.3 5.8 5.9 10.5 10.2 5.7 11.2 9.5 13.3 8.3 8.7 2.1 1.5 1.9 0.6 0.9 1.0 0.3 0.3 0.3 0.0
3.1 2.7 2.2 2.8 2.9 2.4 1.4 1.9 2.1 2.1 1.5 1.9 3.0 3.1 4.6 3.4 5.5 8.0 16.3 17.3 17.7 13.4 8.9 11.4 11.8 14.0 13.1 9.6 10.4 5.3 5.5 5.9 6.1 2.1 2.3 2.5 2.6 2.6
3.2 2.4 3.0 3.2 2.7 2.7 2.9 2.6 3.3 4.1 2.5 1.5 1.4 0.7 1.6 1.4 1.4 1.9 4.8 11.2 13.5 16.3 12.6 15.4 14.0 15.3 24.7 20.5 17.7 13.3 11.9 12.1 10.7 9.0 6.1 5.4 4.0 3.5
2.9 3.6 3.6 6.1 4.8 3.1 1.6 2.5 4.7 3.0 2.1 1.8 1.1 1.9 1.3 1.4 1.4 0.5 1.6 3.6 7.7 6.7 7.2 14.6 21.8 20.2 26.1 23.9 17.0 14.0 11.3 12.5 13.0 9.1 6.9 6.2 4.7 3.9
11.7 9.2 9.2 6.6 6.9 4.9 5.4 6.3 4.5 5.7 5.3 3.8 5.5 7.3 10.7 8.0 10.0 7.3 8.6 9.0 8.8 11.1 12.3 11.6 18.2 15.7 16.9 17.1 14.3 10.9 9.4 8.3 7.5 9.3 11.3 7.0 6.6 9.3
13.6 12.5 13.6 11.2 11.8 11.6 13.6 13.6 12.7 13.2 14.1 17.9 25.7 26.5 25.9 22.9 19.9 17.1 14.3 13.1 13.6 10.6 11.9 12.0 11.1 11.8 11.9 14.3 11.9 9.7 12.1 9.2 6.2 5.9 8.0 9.1 10.3 10.0
9.3 8.8 10.4 12.8 10.3 13.8 16.1 13.3 16.3 25.2 28.2 31.8 31.5 32.5 28.4 26.1 25.1 21.2 20.6 20.6 20.7 20.3 16.6 14.5 13.8 15.3 18.9 16.7 15.8 15.7 12.8 13.6 10.0 9.6 10.9 12.6 13.5 12.6
10.3 17.6 24.7 20.2 21.6 22.7 23.9 24.4 24.3 24.7 26.4 25.5 25.1 24.2 22.8 20.7 19.6 16.1 15.3 13.7 16.2 14.7 15.9 16.3 13.5 12.9 12.0 13.6 18.3 15.9 15.3 12.6 11.0 12.8 11.8 15.3 14.3 13.3
20.5 23.1 23.9 23.2 21.5 21.0 21.1 20.5 18.9 17.5 16.1 14.3 14.0 13.1 14.0 12.9 11.0 8.7 7.8 9.5 9.9 10.2 8.7 9.3 11.0 14.0 15.1 15.1 13.1 16.6 18.2 17.5 13.3 11.9 11.4 14.7 14.2 15.0
17.0 14.1 16.4 16.1 14.4 12.3 11.1 10.4 12.9 11.4 7.1 8.2 8.7 7.8 6.1 5.9 7.1 5.8 5.3 4.6 5.6 5.3 4.9 6.2 7.6 9.6 12.8 13.3 12.2 11.3 17.6 16.1 17.4 18.9 16.8 18.0 22.5 21.5
9.7 9.0 9.5 8.1 7.4 7.4 6.9 7.3 7.7 6.5 6.1 4.5 4.9 4.5 5.2 5.6 5.2 4.9 4.4 5.4 4.4 4.3 5.0 4.1 3.8 5.5 10.8 15.7 15.0 8.8 10.5 16.1 9.4 12.5 12.8 12.9 12.3 13.3
7.2 6.7 6.2 6.0 6.9 7.0 6.1 5.9 7.6 8.3 5.5 8.4 6.5 7.6 8.3 8.5 6.8 4.6 6.2 6.1 6.8 5.8 5.4 3.0 1.3 2.7 3.3 5.3 11.3 6.5 4.1 3.6 3.7 4.6 6.7 8.5 7.2 8.2
7.0 6.7 5.3 5.6 4.8 5.2 5.9 5.6 5.7 6.5 7.3 7.7 6.2 5.3 6.1 5.7 6.6 4.9 4.7 5.4 4.0 3.5 2.6 2.1 2.0 3.2 5.1 5.4 6.5 5.6 3.3 5.1 3.2 2.3 3.0 4.6 10.1 14.2
6.6 5.4 5.5 4.9 4.2 4.5 4.8 5.1 4.5 4.1 4.7 6.5 5.1 4.4 5.6 6.5 4.8 4.8 4.6 4.3 4.6 4.1 3.8 5.1 3.8 3.0 3.1 3.1 5.1 6.4 4.1 5.4 4.5 6.5 6.4 3.8 3.8 2.6